Regional Weather Roundup
Issued by NWS

Home | Current Version | Previous Version | Graphics & Text | Print | Product List | Glossary On
Versions: 1 2 3 4 5 6 7 8 9 10 11 12 13 14 15 16 17 18 19 20 21 22 23 24 25 26 27 28 29 30 31 32 33 34 35 36 37 38 39 40 41 42 43 44 45 46 47 48 49 50
000
ASUS45 KCYS 091410
RWRWY

WYOMING REGIONAL WEATHER ROUNDUP
NATIONAL WEATHER SERVICE CHEYENNE WY
700 AM MST TUE FEB 09 2016

NOTE:  "FAIR" INDICATES FEW OR NO CLOUDS BELOW 12,000 FEET
WITH NO SIGNIFICANT WEATHER AND/OR OBSTRUCTIONS TO VISIBILITY.

WYZ001-091500-
YELLOWSTONE NATIONAL PARK

CITY           SKY/WX    TMP DP  RH WIND       PRES   REMARKS
LK YELLOWSTONE   N/A     12   9  87 CALM      30.56F
W YELLOWSTONE  NOT AVBL

$$
WYZ002>013-054>058-071-098>099-091500-
NORTHERN WYOMING

CITY           SKY/WX    TMP DP  RH WIND       PRES   REMARKS
JACKSON        CLEAR      3   3 100 N9        30.59R WCI -11
CODY           FAIR      30  19  64 CALM      30.35S
GREYBULL       FAIR      18  14  84 CALM      30.39S
WORLAND        FAIR      18  15  88 CALM      30.38R
SHERIDAN       FAIR      39  27  62 W12       30.29R WCI  32
BUFFALO        FAIR      40  26  57 CALM      30.29R
GILLETTE       FAIR      33  27  78 W12       30.26S WCI  24
HULETT         FAIR      32  27  80 SW6       30.26R WCI  26
NEWCASTLE      FAIR      32  25  74 NW13      30.25R WCI  22

$$
WYZ014>020-022>026-101>103-091500-
CENTRAL WYOMING

CITY           SKY/WX    TMP DP  RH WIND       PRES   REMARKS
BIG PINEY      FAIR      16  12  84 N3        30.47F
PINEDALE       FAIR      28  21  74 W15       30.45S WCI  17
DUBOIS         FAIR      39  14  35 W26G38    30.40F WCI  28
LANDER         FAIR      22  13  68 CALM      30.39R
RIVERTON       FAIR      17  12  80 CALM      30.40R
CASPER         FAIR      30  19  63 SW21      30.34F WCI  17
DOUGLAS        FAIR      30  21  69 NW12        N/A  WCI  20

$$
WYZ021-027>030-104>119-091500-
SOUTHERN WYOMING

CITY           SKY/WX    TMP DP  RH WIND       PRES   REMARKS
EVANSTON       FAIR      23  17  78 SW12      30.54S WCI  12
KEMMERER       FAIR      28  23  80 W17G23    30.50S WCI  16
FORT BRIDGER   SUNNY     32  25  74 W22       30.54R WCI  19
ROCK SPRINGS   FAIR      26  20  77 SW16      30.47S WCI  14
DIXON          FAIR      17  12  80 E7        30.53F WCI   7
RAWLINS        FAIR      26  17  68 SW13      30.44R WCI  15
SARATOGA       FAIR      10   7  85 CALM      30.45S
LARAMIE        FAIR      19  12  74 E6        30.36R WCI  11
CHEYENNE       FAIR      35  19  52 NW12      30.31R WCI  27
TORRINGTON     FAIR      32  22  66 NW10      30.27S WCI  24
PINE BLUFFS    FAIR      36  23  60 NW22      30.29S WCI  24

$$



USA.gov is the U.S. government's official web portal to all federal, state and local government web resources and services.